* Astronomy

Members Login
Username 
 
Password 
    Remember Me  
Post Info TOPIC: Asteroid 2015 BY3


L

Posts: 131433
Date:
Asteroid 2015 BY3
Permalink  
 


Orbital elements:
2015 BY3                                                 Earth MOID = 0.0005 AU
Epoch 2014 Dec. 9.0 TT = JDT 2457000.5                  MPC
M   9.87304              (2000.0)            P               Q
n   0.57746391     Peri.   93.09062     +0.92417824     -0.37875417
a   1.4281905      Node   289.17023     +0.32638100     +0.85024478
e   0.5533737      Incl.    2.99764     +0.19841882     +0.36555314
P   1.71           H   27.5           G   0.15           U   7

MPEC 2015 - B60



__________________
Page 1 of 1  sorted by
 
Quick Reply

Please log in to post quick replies.



Create your own FREE Forum
Report Abuse
Powered by ActiveBoard